KN4CI-1 Weather Reports


Display with metric or nautical units.
time (UTC)temp
F
wind
direction
speed
MPH
gust
MPH
rain 1hr
in
rain 24hr
in
rain mn
in
humidity
%
barometer
mb
20260510175014 82 351 3.0 7.0 0.00 0.00 0.00 14 1017.6
20260510174513 82 343 5.0 7.0 0.00 0.00 0.00 14 1017.6
20260510174007 83 167 0.0 5.0 0.00 0.00 0.00 14 1017.6
20260510173507 83 167 3.0 4.0 0.00 0.00 0.00 14 1017.6
20260510172503 83 95 4.0 7.0 0.00 0.00 0.00 14 1017.6
20260510172004 82 166 7.0 8.0 0.00 0.00 0.00 14 1017.6
20260510170958 80 164 3.0 5.0 0.00 0.00 0.00 14 1017.6
20260510170455 79 3 3.0 7.0 0.00 0.00 0.00 15 1017.6
20260510165449 78 124 4.0 7.0 0.00 0.00 0.00 15 1017.6
20260510164950 77 154 3.0 6.0 0.00 0.00 0.00 15 1017.6
20260510164450 78 165 5.0 6.0 0.00 0.00 0.00 15 1017.6
20260510163946 78 261 3.0 4.0 0.00 0.00 0.00 15 1017.6
20260510163446 78 253 3.0 6.0 0.00 0.00 0.00 15 1018.6
20260510162946 78 256 3.0 4.0 0.00 0.00 0.00 15 1018.6
20260510161942 77 159 3.0 6.0 0.00 0.00 0.00 18 1018.6
20260510160852 77 144 0.0 4.0 0.00 0.00 0.00 18 1018.6
20260510160338 77 90 3.0 6.0 0.00 0.00 0.00 21 1018.6
20260510155838 76 78 3.0 6.0 0.00 0.00 0.00 20 1018.6
20260510155334 75 59 4.0 6.0 0.00 0.00 0.00 20 1018.6
20260510154333 75 124 4.0 6.0 0.00 0.00 0.00 23 1018.6
20260510153823 74 166 3.0 5.0 0.00 0.00 0.00 24 1018.6
20260510153319 74 146 3.0 4.0 0.00 0.00 0.00 26 1017.6
20260510152819 73 146 3.0 6.0 0.00 0.00 0.00 28 1017.6
20260510152315 73 138 5.0 4.0 0.00 0.00 0.00 28 1017.6
20260510151316 72 117 4.0 4.0 0.00 0.00 0.00 27 1017.6
20260510145306 71 109 3.0 4.0 0.00 0.00 0.00 32 1017.6
20260510144806 71 109 0.0 5.0 0.00 0.00 0.00 33 1017.6
20260510141800 69 159 0.0 3.0 0.00 0.00 0.00 44 1017.6
20260510123237 63 170 0.0 4.0 0.00 0.00 0.00 67 1016.6
20260510121232 62 170 0.0 4.0 0.00 0.00 0.00 68 1016.6
20260510113714 61 170 0.0 0.0 0.00 0.00 0.00 65 1016.6
20260510111213 60 170 0.0 0.0 0.00 0.00 0.00 61 1016.6
20260510105710 60 170 0.0 0.0 0.00 0.00 0.00 59 1015.6
20260510105206 60 170 0.0 0.0 0.00 0.00 0.00 59 1015.6
20260510102705 60 170 0.0 0.0 0.00 0.00 0.00 57 1015.6
20260510101703 60 170 0.0 0.0 0.00 0.00 0.00 56 1015.6
20260510094158 60 170 0.0 0.0 0.00 0.00 0.00 54 1015.6
20260510092654 59 170 0.0 0.0 0.00 0.00 0.00 53 1014.6
20260510091652 59 170 0.0 0.0 0.00 0.00 0.00 53 1014.6
20260510091153 59 170 0.0 0.0 0.00 0.00 0.00 53 1014.6
20260510084649 58 170 0.0 0.0 0.00 0.00 0.00 53 1014.6
20260510082140 57 170 0.0 0.0 0.00 0.00 0.00 51 1014.6
20260510081141 58 170 0.0 0.0 0.00 0.00 0.00 51 1014.6
20260510080636 58 170 0.0 0.0 0.00 0.00 0.00 51 1014.6
20260510075635 58 170 0.0 0.0 0.00 0.00 0.00 50 1014.6
20260510074128 58 170 0.0 0.0 0.00 0.00 0.00 49 1014.6
20260510073624 58 170 0.0 0.0 0.00 0.00 0.00 49 1014.6
20260510073124 58 170 0.0 0.0 0.00 0.00 0.00 49 1014.6
20260510072625 58 170 0.0 0.0 0.00 0.00 0.00 49 1014.6
20260510071623 58 170 0.0 0.0 0.00 0.00 0.00 49 1014.6
20260510071123 58 170 0.0 0.0 0.00 0.00 0.00 48 1014.6
20260510070621 59 170 0.0 0.0 0.00 0.00 0.00 48 1014.6
20260510070120 59 170 0.0 0.0 0.00 0.00 0.00 48 1014.6
20260510065114 59 170 0.0 0.0 0.00 0.00 0.00 47 1014.6
20260510064615 59 170 0.0 0.0 0.00 0.00 0.00 47 1014.6
20260510064113 59 170 0.0 0.0 0.00 0.00 0.00 47 1014.6
20260510063609 59 170 0.0 0.0 0.00 0.00 0.00 47 1014.6
20260510063109 59 170 0.0 0.0 0.00 0.00 0.00 46 1014.6
20260510061606 59 170 0.0 0.0 0.00 0.00 0.00 46 1014.6
20260510061106 60 170 0.0 0.0 0.00 0.00 0.00 46 1014.6
20260510060600 60 170 0.0 0.0 0.00 0.00 0.00 45 1014.6
20260510060101 60 170 0.0 0.0 0.00 0.00 0.00 45 1014.6
20260510055601 60 170 0.0 0.0 0.00 0.00 0.00 45 1014.6
20260510055056 60 170 0.0 0.0 0.00 0.00 0.00 45 1014.6
20260510054555 60 170 0.0 0.0 0.00 0.00 0.00 44 1014.6
20260510054056 60 170 0.0 0.0 0.00 0.00 0.00 44 1014.6
20260510053051 61 170 0.0 0.0 0.00 0.00 0.00 44 1014.6
20260510052037 61 170 0.0 0.0 0.00 0.00 0.00 44 1014.6
20260510051536 61 170 0.0 0.0 0.00 0.00 0.00 43 1014.6
20260510050532 61 170 0.0 0.0 0.00 0.00 0.00 43 1014.6
20260510045532 62 170 0.0 0.0 0.00 0.00 0.00 43 1014.6
20260510044527 62 170 0.0 0.0 0.00 0.00 0.00 42 1014.6
20260510044027 62 170 0.0 0.0 0.00 0.00 0.00 41 1014.6
20260510043525 62 170 0.0 0.0 0.00 0.00 0.00 41 1014.6
20260510042524 62 170 0.0 0.0 0.00 0.00 0.00 41 1014.6
20260510042019 63 170 0.0 0.0 0.00 0.00 0.00 41 1014.6
20260510041520 63 170 0.0 0.0 0.00 0.00 0.00 40 1014.6
20260510041020 63 170 0.0 0.0 0.00 0.00 0.00 40 1014.6
20260510040516 63 170 0.0 0.0 0.00 0.00 0.00 39 1014.6
20260510040016 63 170 0.0 0.0 0.00 0.00 0.00 39 1014.6
20260510035511 63 170 0.0 0.0 0.00 0.00 0.00 39 1014.6
20260510035008 63 170 0.0 0.0 0.00 0.00 0.00 38 1014.6
20260510034509 63 170 0.0 0.0 0.00 0.00 0.00 38 1014.6
20260510033503 64 170 0.0 0.0 0.00 0.00 0.00 37 1014.6
20260510032001 64 170 0.0 0.0 0.00 0.00 0.00 36 1014.6
20260510030457 65 170 0.0 0.0 0.00 0.00 0.00 35 1014.6
20260510025951 65 170 0.0 0.0 0.00 0.00 0.00 35 1014.6
20260510025452 65 170 0.0 0.0 0.00 0.00 0.00 35 1014.6
20260510024949 65 170 0.0 0.0 0.00 0.00 0.00 34 1014.6
20260510024450 65 170 0.0 0.0 0.00 0.00 0.00 34 1014.6
20260510023950 66 170 0.0 0.0 0.00 0.00 0.00 34 1014.6
20260510023448 66 170 0.0 0.0 0.00 0.00 0.00 33 1014.6
20260510022447 66 170 0.0 0.0 0.00 0.00 0.00 33 1014.6
20260510021443 67 170 0.0 0.0 0.00 0.00 0.00 33 1013.6
20260510015942 67 249 0.0 3.0 0.00 0.00 0.00 32 1013.6
20260510015442 67 249 0.0 0.0 0.00 0.00 0.00 32 1013.6
20260510014938 67 249 0.0 0.0 0.00 0.00 0.00 30 1013.6
20260510014438 67 249 0.0 0.0 0.00 0.00 0.00 29 1013.6
20260510013937 67 249 0.0 0.0 0.00 0.00 0.00 28 1013.6
20260510013433 67 249 0.0 0.0 0.00 0.00 0.00 27 1012.6
20260510012934 68 249 0.0 0.0 0.00 0.00 0.00 27 1012.6
20260510012434 68 249 0.0 0.0 0.00 0.00 0.00 26 1012.6
20260510011931 68 249 0.0 0.0 0.00 0.00 0.00 26 1012.6
20260510011431 68 249 0.0 0.0 0.00 0.00 0.00 25 1012.6
20260510010932 69 249 0.0 0.0 0.00 0.00 0.00 24 1012.6
20260510005427 70 249 0.0 0.0 0.00 0.00 0.00 23 1012.6
20260510004922 70 249 0.0 0.0 0.00 0.00 0.00 23 1012.6
20260510004422 71 249 0.0 0.0 0.00 0.00 0.00 22 1012.6
20260510003920 71 249 0.0 0.0 0.00 0.00 0.00 22 1012.6
20260510003416 71 249 0.0 0.0 0.00 0.00 0.00 22 1012.6
20260510002916 72 249 0.0 0.0 0.00 0.00 0.00 22 1012.6
20260510002416 72 249 0.0 0.0 0.00 0.00 0.00 22 1012.6
20260510000911 73 249 0.0 0.0 0.00 0.00 0.00 21 1011.6
20260510000404 73 249 0.0 0.0 0.00 0.00 0.00 21 1011.6
20260509235404 74 249 0.0 0.0 0.00 0.00 0.00 18 1011.6
20260509234400 74 249 0.0 0.0 0.00 0.00 0.00 18 1011.6
20260509232854 75 249 0.0 0.0 0.00 0.00 0.00 18 1011.6
20260509231350 76 249 0.0 0.0 0.00 0.00 0.00 15 1011.6
20260509225845 76 249 0.0 0.0 0.00 0.00 0.00 15 1011.6
20260509222828 78 249 0.0 4.0 0.00 0.00 0.00 15 1011.6
20260509222328 79 267 0.0 0.0 0.00 0.00 0.00 15 1011.6
20260509221824 79 267 0.0 3.0 0.00 0.00 0.00 15 1011.6
20260509221324 78 267 0.0 6.0 0.00 0.00 0.00 15 1011.6
20260509220825 78 267 3.0 3.0 0.00 0.00 0.00 15 1011.6
20260509220320 78 318 0.0 4.0 0.00 0.00 0.00 15 1011.6
20260509215821 79 318 0.0 4.0 0.00 0.00 0.00 15 1011.6
20260509214817 79 318 0.0 3.0 0.00 0.00 0.00 14 1011.6
20260509213812 79 318 0.0 4.0 0.00 0.00 0.00 14 1011.6
20260509213307 80 318 0.0 4.0 0.00 0.00 0.00 14 1011.6
20260509211305 79 309 4.0 5.0 0.00 0.00 0.00 15 1011.6
20260509210803 79 341 4.0 4.0 0.00 0.00 0.00 15 1011.6
20260509205254 79 149 3.0 4.0 0.00 0.00 0.00 15 1011.6
20260509202736 79 328 4.0 6.0 0.00 0.00 0.00 15 1011.6
20260509202234 79 347 4.0 5.0 0.00 0.00 0.00 15 1011.6
20260509201729 80 327 3.0 6.0 0.00 0.00 0.00 14 1011.6
20260509201229 81 139 3.0 3.0 0.00 0.00 0.00 14 1011.6
20260509200225 81 198 0.0 6.0 0.00 0.00 0.00 14 1011.6
20260509195724 81 264 4.0 6.0 0.00 0.00 0.00 14 1011.6
20260509195220 80 250 4.0 5.0 0.00 0.00 0.00 14 1011.6
20260509194715 79 351 0.0 4.0 0.00 0.00 0.00 15 1011.6
20260509194215 79 351 0.0 5.0 0.00 0.00 0.00 15 1011.6
20260509193716 79 186 3.0 4.0 0.00 0.00 0.00 15 1011.6
20260509193204 79 251 0.0 5.0 0.00 0.00 0.00 15 1011.6
20260509192704 78 251 4.0 4.0 0.00 0.00 0.00 15 1011.6
20260509192203 78 329 4.0 4.0 0.00 0.00 0.00 15 1011.6
20260509191658 78 329 3.0 4.0 0.00 0.00 0.00 15 1011.6
20260509191158 78 303 0.0 4.0 0.00 0.00 0.00 15 1011.6
20260509190659 78 250 3.0 5.0 0.00 0.00 0.00 15 1011.6
20260509190154 78 234 4.0 7.0 0.00 0.00 0.00 15 1011.6
20260509185655 78 328 4.0 6.0 0.00 0.00 0.00 15 1011.6
20260509185155 78 259 4.0 6.0 0.00 0.00 0.00 15 1012.6
20260509184650 78 258 4.0 5.0 0.00 0.00 0.00 15 1012.6
20260509184150 78 229 4.0 6.0 0.00 0.00 0.00 15 1012.6
20260509183650 78 246 3.0 4.0 0.00 0.00 0.00 15 1012.6
20260509182648 77 318 0.0 5.0 0.00 0.00 0.00 15 1012.6
20260509182149 77 166 0.0 5.0 0.00 0.00 0.00 15 1012.6
20260509181646 76 48 3.0 5.0 0.00 0.00 0.00 15 1012.6